Flight Track Log - Related Links

Times and Time Zones

All times are in EDT time to prevent confusion due to time zone crossing. See the UPS1122 flight status page for this flight to view local times or setup timezone preferences in your user account.

Time Position Orientation Groundspeed Altitude Reporting Facility
EDT Latitude Longitude Course Direction KTS MPH feet Rate Location/Type
03:36AM 39.8655 -75.2514 76° East 167 192 100  Level FlightAware ADS-B
03:36AM 39.8670 -75.2437 76° East 167 192 700 3,882 Climbing FlightAware ADS-B
03:36AM 39.8689 -75.2345 75° East 169 194 1,200 2,455 Climbing FlightAware ADS-B
03:36AM 39.8718 -75.2220 73° East 185 213 1,600 1,500 Climbing FlightAware ADS-B
03:37AM 39.8763 -75.2048 71° East 213 245 1,900 1,440 Climbing FlightAware ADS-B
03:37AM 39.8793 -75.1929 72° East 222 255 2,200 2,143 Climbing FlightAware ADS-B
03:37AM 39.8803 -75.1872 77° East 224 258 2,400 3,000 Climbing FlightAware ADS-B
03:37AM 39.8810 -75.1820 80° East 224 258 2,600 3,333 Climbing FlightAware ADS-B
03:37AM 39.8814 -75.1758 85° East 223 257 2,900 3,333 Climbing FlightAware ADS-B
03:37AM 39.8814 -75.1702 90° East 223 257 3,100 3,333 Climbing FlightAware ADS-B
03:37AM 39.8809 -75.1628 95° East 224 258 3,400 3,333 Climbing FlightAware ADS-B
03:37AM 39.8803 -75.1585 100° East 226 260 3,600 2,400 Climbing FlightAware ADS-B
03:37AM 39.8791 -75.1508 101° East 231 266 3,800 2,000 Climbing FlightAware ADS-B
03:38AM 39.8745 -75.1285 105° East 254 292 4,300 2,063 Climbing FlightAware ADS-B
03:38AM 39.8692 -75.1028 105° East 270 311 4,900 2,600 Climbing FlightAware ADS-B
03:38AM 39.8652 -75.0818 104° East 275 316 5,600 3,455 Climbing FlightAware ADS-B
03:38AM 39.8595 -75.0505 103° East 274 315 6,800 3,333 Climbing FlightAware ADS-B
03:39AM 39.8549 -75.0242 103° East 281 323 7,600 3,188 Climbing FlightAware ADS-B
03:39AM 39.8496 -74.9978 105° East 280 322 8,500 3,000 Climbing FlightAware ADS-B
03:39AM 39.8440 -74.9723 106° East 286 329 9,200 2,483 Climbing FlightAware ADS-B
03:39AM 39.8394 -74.9506 105° East 297 342 9,700 2,400 Climbing FlightAware ADS-B
03:40AM 39.8356 -74.9288 103° East 301 346 10,200 2,667 Climbing FlightAware ADS-B
03:40AM 39.8352 -74.9172 93° East 301 346 10,500 3,000 Climbing FlightAware ADS-B
03:40AM 39.8359 -74.9074 85° East 303 349 10,800 2,182 Climbing FlightAware ADS-B
03:40AM 39.8376 -74.8977 77° East 306 352 10,900 1,333 Climbing FlightAware ADS-B
03:40AM 39.8390 -74.8921 72° East 309 356 11,000 2,000 Climbing FlightAware ADS-B
03:40AM 39.8420 -74.8832 66° East 312 359 11,200 1,333 Climbing FlightAware ADS-B
03:40AM 39.8450 -74.8762 61° Northeast 317 365 11,200 1,200 Level FlightAware ADS-B
03:40AM 39.8505 -74.8661 55° Northeast 321 369 11,400 1,875 Climbing FlightAware ADS-B
03:40AM 39.8609 -74.8525 45° Northeast 326 375 11,700 2,357 Climbing FlightAware ADS-B
03:41AM 39.8821 -74.8311 38° Northeast 329 379 12,500 1,592 Climbing FlightAware ADS-B
03:41AM 39.9233 -74.7929 35° Northeast 362 417 13,000 1,309 Climbing FlightAware ADS-B
03:42AM 39.9572 -74.7595 37° Northeast 382 440 13,700 2,000 Climbing FlightAware ADS-B
03:42AM 40.0029 -74.7133 38° Northeast 390 449 14,900 2,381 Climbing FlightAware ADS-B
03:43AM 40.0467 -74.6702 37° Northeast 392 451 16,200 2,400 Climbing FlightAware ADS-B
03:43AM 40.0905 -74.6265 37° Northeast 400 460 17,300 2,211 Climbing FlightAware ADS-B
03:43AM 40.1026 -74.6143 38° Northeast 399 459 17,600 2,000 Climbing FlightAware ADS-B
03:44AM 40.1355 -74.5810 38° Northeast 405 466 18,300 2,000 Climbing FlightAware ADS-B
03:44AM 40.1703 -74.5459 38° Northeast 407 468 19,100 2,000 Climbing FlightAware ADS-B
03:44AM 40.1812 -74.5349 38° Northeast 411 473 19,300 2,053 Climbing FlightAware ADS-B
03:45AM 40.2273 -74.4882 38° Northeast 415 478 20,400 1,672 Climbing FlightAware ADS-B
03:45AM 40.2732 -74.4417 38° Northeast 413 475 21,000 590 Climbing FlightAware ADS-B
03:46AM 40.3211 -74.3934 38° Northeast 445 512 21,000  Level FlightAware ADS-B
03:46AM 40.3711 -74.3428 38° Northeast 454 522 21,000  Level FlightAware ADS-B
03:47AM 40.4221 -74.2909 38° Northeast 453 521 21,000  Level FlightAware ADS-B
03:47AM 40.4719 -74.2404 38° Northeast 450 518 21,000  Level FlightAware ADS-B
03:48AM 40.5088 -74.2028 38° Northeast 448 516 21,000  Level FlightAware ADS-B
03:48AM 40.5217 -74.1898 37° Northeast 447 514 21,000  Level FlightAware ADS-B
03:48AM 40.5617 -74.1491 38° Northeast 446 513 21,000  Level FlightAware ADS-B
03:48AM 40.5689 -74.1418 38° Northeast 445 512 21,000  Level FlightAware ADS-B
03:49AM 40.6181 -74.0919 38° Northeast 442 509 21,000  Level FlightAware ADS-B
03:49AM 40.6259 -74.0840 38° Northeast 443 510 21,000  Level FlightAware ADS-B
03:49AM 40.6665 -74.0424 38° Northeast 439 505 21,000  Level FlightAware ADS-B
03:49AM 40.6745 -74.0341 38° Northeast 440 506 21,000  Level FlightAware ADS-B
03:50AM 40.7154 -73.9920 38° Northeast 439 505 21,000  Level FlightAware ADS-B
03:50AM 40.7636 -73.9422 38° Northeast 441 507 21,000  Level FlightAware ADS-B
03:51AM 40.8078 -73.8965 38° Northeast 442 509 21,000  Level FlightAware ADS-B
03:51AM 40.8566 -73.8458 38° Northeast 444 511 21,000  Level FlightAware ADS-B
03:52AM 40.9054 -73.7952 38° Northeast 446 513 21,000  Level FlightAware ADS-B
03:52AM 40.9552 -73.7433 38° Northeast 447 514 21,000 -100 Level FlightAware ADS-B
03:53AM 41.0040 -73.6923 38° Northeast 444 511 20,900 -1,200 Descending FlightAware ADS-B
03:53AM 41.0525 -73.6414 38° Northeast 447 514 19,800 -2,700 Descending FlightAware ADS-B
03:54AM 41.1014 -73.5903 38° Northeast 446 513 18,200 -2,951 Descending FlightAware ADS-B
03:54AM 41.1503 -73.5390 38° Northeast 434 499 16,800 -2,754 Descending FlightAware ADS-B
03:55AM 41.1975 -73.4895 38° Northeast 427 491 15,400 -2,800 Descending FlightAware ADS-B
03:55AM 41.2438 -73.4411 38° Northeast 420 483 14,000 -1,254 Descending FlightAware ADS-B
03:56AM 41.2440 -73.4410 21° North 420 483 14,000 -1,780 Level FlightAware
03:57AM 41.3720 -73.3070 38° Northeast 400 460 11,300 -1,373 Descending FlightAware
03:58AM 41.4520 -73.2240 38° Northeast 400 460 11,300 -120 Level FlightAware
03:58AM 41.5144 -73.1636 38° Northeast 380 437 11,100 -429 Descending Boston Center
03:59AM 41.5542 -73.1197 40° Northeast 320 368 10,800 -876 Descending Boston Center
04:00AM 41.6108 -73.0592 39° Northeast 295 339 9,800 -1,256 Descending Boston Center
04:00AM 41.6467 -73.0264 34° Northeast 298 343 9,000 -2,242 Descending Boston Center
04:01AM 41.7094 -72.9656 36° Northeast 280 322 6,400 -2,533 Descending Boston Center
04:02AM 41.7367 -72.9353 40° Northeast 278 320 5,200 -2,000 Descending Boston Center
04:02AM 41.7681 -72.9022 38° Northeast 274 315 4,400 -1,279 Descending Boston Center
04:03AM 41.7931 -72.8772 37° Northeast 266 306 3,900 -1,055 Descending Boston Center
04:04AM 41.8392 -72.8247 40° Northeast 210 242 2,800 -942 Descending Boston Center
04:05AM 41.8664 -72.7831 49° Northeast 147 169 2,000 -750 Descending Boston Center
04:06AM 41.8956 -72.7469 43° Northeast 127 146 1,200 -661 Descending Boston Center
04:07AM 41.9228 -72.7136 42° Northeast 125 144 600 -600 Descending Boston Center
04:12AM 41.9392 -72.6834 236° Southwest  Level Estimated
04:19AM 41.9333 -72.6833 236° Southwest  Level FlightAware Approximate
04:20AM 41.9392 -72.6834 236° Southwest  Level Estimated
04:21AM 41.9333 -72.6833 236° Southwest  Level FlightAware Approximate
04:22AM 41.9392 -72.6834 236° Southwest  Level Estimated

Login

Don't have an account? Register now (free) for customized features, flight alerts, and more!